Regional Weather Roundup
Issued by NWS

Home | Current Version | Previous Version | Text Only | Print | Product List | Glossary Off
Versions: 1 2 3 4 5 6 7 8 9 10 11 12 13 14 15 16 17 18 19 20 21 22 23 24 25 26 27 28 29 30 31 32 33 34 35 36 37 38 39 40 41 42 43 44 45 46 47 48 49 50

000
ASUS43 KFSD 191310
RWRSD

WEATHER ROUNDUP FOR SOUTH DAKOTA
NATIONAL WEATHER SERVICE SIOUX FALLS SD
800 AM CDT THU OCT 19 2017

NOTE: "FAIR" INDICATES FEW OR NO CLOUDS BELOW 12,000 FEET WITH NO
SIGNIFICANT WEATHER AND/OR OBSTRUCTIONS TO VISIBILITY.


SDZ001>005-009-010-012>017-191400-
NORTHWEST AND NORTH CENTRAL SOUTH DAKOTA

CITY           SKY/WX    TMP DP  RH WIND       PRES   REMARKS
BUFFALO          N/A     44  27  51 W8        29.77S
FAITH            N/A     41  31  67 S8        29.83S
MOBRIDGE       CLOUDY    46  37  71 S10       29.82S
$$

SDZ012>016-024>037-041>051-057-063-072>074-191400-
SOUTHWEST AND SOUTH CENTRAL SOUTH DAKOTA

CITY           SKY/WX    TMP DP  RH WIND       PRES   REMARKS
RAPID CTY ARPT CLOUDY    45  26  47 S7        29.87S
PIERRE         CLOUDY    45  35  68 S8        29.87F
CUSTER         CLOUDY    53  14  21 W9        29.97S
ELLSWORTH AFB  CLOUDY    48  25  40 CALM      29.86R
PHILIP         CLOUDY    53  35  50 SW7       29.85F
PINE RIDGE     CLOUDY    51  33  50 SW12G21   29.93F
SPEARFISH      FAIR      55  19  24 CALM      29.89S
WINNER         FAIR      54  35  48 S24G33    29.92F
$$

SDZ004>011-016>023-039-040-191400-
NORTHEAST SOUTH DAKOTA

CITY           SKY/WX    TMP DP  RH WIND       PRES   REMARKS
ABERDEEN       CLOUDY    39  32  76 S9        29.91S
WATERTOWN      CLOUDY    41  32  70 S9        29.96F
BROOKINGS      CLOUDY    40  31  70 SE10      30.02S
SISSETON         N/A     54  29  38 S10       29.90F
$$

SDZ017-020-022-023-036>040-048>070-191400-
SOUTHEAST SOUTH DAKOTA

CITY           SKY/WX    TMP DP  RH WIND       PRES   REMARKS
SIOUX FALLS    CLOUDY    47  34  60 S8        30.04R
HURON          CLOUDY    40  31  70 SE13      29.96F
CHAMBERLAIN    CLEAR     48  38  69 S12       29.95S
MITCHELL       CLOUDY    40  33  76 SE7       29.99S
YANKTON        CLOUDY    38  35  89 E3        30.03S
$$

ABBREVIATIONS USED IN REMARKS
   TC - TEMPERATURE IN CELSIUS
  WCI - WIND CHILL INDEX
   HX - HEAT INDEX
  VSB - VISIBILITY




USA.gov is the U.S. government's official web portal to all federal, state and local government web resources and services.